ARIANE 5 R/B (49058 NORAD) Tracking and Keplerian Element Data

This shows tracking and keplerian element data for the satellite.

Feedback or suggestion? Click here.




ElementValue
Catalog49058
NameARIANE 5 R/B
Epoch Orbit65
Epoch Day241.20474846
Epoch Year2021
RAAN86.5663
Inclination2.7484
Eccentricity0.7270565
Argument of Perigee195.8071
Mean Anonmoly116.3967
Mean Motion2.29694952
Decay Rate2.437E-05
L11 49058U 21069D 21241.20474846 .00002437 00000-0 68334-3 0 9992
L22 49058 2.7484 86.5663 7270565 195.8071 116.3967 2.29694952 652



Live tracking and technical data element details for ARIANE 5 R/B (NORAD 49058). ARIANE 5 R/B can be tracked NOW for your location showing map with azimuth and elevation plus other details from your city location.







IsCatalogInMostPopularTable: catalog: 49058, numindb: 66
Update: records affected: 1



GetName: 49058 ARIANE 5 R/B

Hit Count: updated at: Sun, 11 Jun 2023 00:29:02 GMT